,,PA_Meas_PMT16A,,PR_Meas_QMR101_102,,RH_Meas_QMH101,,SR_Meas_QMS101,,TA_Meas_QMH101,,GenWind,,GenWind,
time,status,PA,status,PR,status,RH,status,SR,status,TA,status,DirAvg,status,SpdAvg,
2009-12-04, 00:00:04,VALID,919.147,VALID,0,VALID,97.4044,VALID,0,VALID,20.3027,VALID,17,VALID,0,
2009-12-04, 00:01:04,VALID,919.147,VALID,0,VALID,97.4349,VALID,0,VALID,20.3433,VALID,17,VALID,0,
2009-12-04, 00:02:04,VALID,919.142,VALID,0,VALID,97.4273,VALID,0,VALID,20.3628,VALID,17,VALID,0,
2009-12-04, 00:03:04,VALID,919.151,VALID,0,VALID,97.4044,VALID,0,VALID,20.3628,VALID,17,VALID,0,
2009-12-04, 00:04:04,VALID,919.154,VALID,0,VALID,97.4044,VALID,0,VALID,20.3628,VALID,17,VALID,0,
2009-12-04, 00:05:04,VALID,919.141,VALID,0,VALID,97.4577,VALID,0,VALID,20.3628,VALID,17,VALID,0,
2009-12-04, 00:06:04,VALID,919.148,VALID,0,VALID,97.4425,VALID,0,VALID,20.3823,VALID,17,VALID,0,
2009-12-04, 00:07:04,VALID,919.14,VALID,0,VALID,97.4196,VALID,0,VALID,20.3823,VALID,17,VALID,0,
2009-12-04, 00:08:04,VALID,919.135,VALID,0,VALID,97.3968,VALID,0.107441,VALID,20.4018,VALID,17,VALID,0,
2009-12-04, 00:09:04,VALID,919.13,VALID,0,VALID,97.4196,VALID,0,VALID,20.3823,VALID,17,VALID,0,
2009-12-04, 00:10:04,VALID,919.122,VALID,0,VALID,97.4349,VALID,0,VALID,20.4213,VALID,17,VALID,0,
2009-12-04, 00:11:04,VALID,919.118,VALID,0,VALID,97.3968,VALID,0,VALID,20.3823,VALID,17,VALID,0.287109,
2009-12-04, 00:12:04,VALID,919.118,VALID,0,VALID,97.3968,VALID,0,VALID,20.3823,VALID,17,VALID,0.122266,
2009-12-04, 00:13:04,VALID,919.106,VALID,0,VALID,97.3891,VALID,0,VALID,20.3823,VALID,17,VALID,0,
2009-12-04, 00:14:04,VALID,919.1,VALID,0,VALID,97.3739,VALID,0,VALID,20.3433,VALID,17,VALID,0.140234,
2009-12-04, 00:15:04,VALID,919.08,VALID,0,VALID,97.3663,VALID,0,VALID,20.3433,VALID,17,VALID,0,
2009-12-04, 00:16:04,VALID,919.088,VALID,0,VALID,97.412,VALID,0,VALID,20.3628,VALID,17,VALID,0,
2009-12-04, 00:17:04,VALID,919.073,VALID,0,VALID,97.412,VALID,0,VALID,20.3628,VALID,17,VALID,0,
2009-12-04, 00:18:04,VALID,919.095,VALID,0,VALID,97.4196,VALID,0,VALID,20.3628,VALID,17,VALID,0,
2009-12-04, 00:19:04,VALID,919.092,VALID,0,VALID,97.3891,VALID,0,VALID,20.3433,VALID,17,VALID,0,
2009-12-04, 00:20:04,VALID,919.066,VALID,0,VALID,97.3891,VALID,0,VALID,20.3448,VALID,17,VALID,0.292578,
2009-12-04, 00:21:04,VALID,919.076,VALID,0,VALID,97.4273,VALID,0,VALID,20.3433,VALID,17,VALID,0.195703,
2009-12-04, 00:22:04,VALID,919.08,VALID,0,VALID,97.3891,VALID,0,VALID,20.3433,VALID,17,VALID,0.189453,
2009-12-04, 00:23:04,VALID,919.076,VALID,0,VALID,97.3739,VALID,0,VALID,20.3238,VALID,17,VALID,0,
2009-12-04, 00:24:04,VALID,919.053,VALID,0,VALID,97.4349,VALID,0,VALID,20.3433,VALID,17,VALID,0,
2009-12-04, 00:25:04,VALID,919.068,VALID,0,VALID,97.4196,VALID,0,VALID,20.3628,VALID,17,VALID,0,
2009-12-04, 00:26:04,VALID,919.013,VALID,0,VALID,97.4349,VALID,0.107441,VALID,20.3823,VALID,17,VALID,0,
2009-12-04, 00:27:04,VALID,919,VALID,0,VALID,97.4196,VALID,0,VALID,20.4018,VALID,17,VALID,0,
2009-12-04, 00:28:04,VALID,918.975,VALID,0,VALID,97.4273,VALID,0,VALID,20.3823,VALID,17,VALID,0.182812,
2009-12-04, 00:29:04,VALID,918.959,VALID,0,VALID,97.4425,VALID,0,VALID,20.4018,VALID,17,VALID,0.179688,
2009-12-04, 00:30:04,VALID,918.943,VALID,0,VALID,97.3891,VALID,0,VALID,20.4423,VALID,17,VALID,0.0988281,
2009-12-04, 00:31:04,VALID,918.92,VALID,0,VALID,97.4196,VALID,0,VALID,20.4018,VALID,17,VALID,0.00585938,
2009-12-04, 00:32:04,VALID,918.919,VALID,0,VALID,97.3663,VALID,0,VALID,20.4018,VALID,17,VALID,0.273047,
2009-12-04, 00:33:04,VALID,918.913,VALID,0,VALID,97.3586,VALID,0.107441,VALID,20.3612,VALID,17,VALID,0.226953,
2009-12-04, 00:34:04,VALID,918.896,VALID,0,VALID,97.412,VALID,0.107441,VALID,20.3628,VALID,17,VALID,0.112891,
2009-12-04, 00:35:04,VALID,918.881,VALID,0,VALID,97.412,VALID,0,VALID,20.3823,VALID,17,VALID,0,
2009-12-04, 00:36:04,VALID,918.846,VALID,0,VALID,97.3891,VALID,0,VALID,20.4018,VALID,17,VALID,0,
2009-12-04, 00:37:04,VALID,918.855,VALID,0,VALID,97.4044,VALID,0,VALID,20.3823,VALID,17,VALID,0,
2009-12-04, 00:38:04,VALID,918.813,VALID,0,VALID,97.3968,VALID,0,VALID,20.4018,VALID,17,VALID,0,
2009-12-04, 00:39:04,VALID,918.829,VALID,0,VALID,97.4425,VALID,0,VALID,20.4018,VALID,17,VALID,0,
2009-12-04, 00:40:04,VALID,918.835,VALID,0,VALID,97.4196,VALID,0,VALID,20.4018,VALID,17,VALID,0,
2009-12-04, 00:41:04,VALID,918.819,VALID,0,VALID,97.3968,VALID,0.107441,VALID,20.4018,VALID,17,VALID,0,
2009-12-04, 00:42:04,VALID,918.829,VALID,0,VALID,97.351,VALID,0.107441,VALID,20.3612,VALID,17,VALID,0,
2009-12-04, 00:43:04,VALID,918.823,VALID,0,VALID,97.3358,VALID,0.107441,VALID,20.3433,VALID,17,VALID,0,
2009-12-04, 00:44:04,VALID,918.803,VALID,0,VALID,97.3053,VALID,0,VALID,20.3253,VALID,17,VALID,0.346094,
2009-12-04, 00:45:04,VALID,918.801,VALID,0,VALID,97.3358,VALID,0,VALID,20.2848,VALID,17,VALID,0.299219,
2009-12-04, 00:46:04,VALID,918.793,VALID,0,VALID,97.3281,VALID,0,VALID,20.2848,VALID,17,VALID,0.169531,
2009-12-04, 00:47:04,VALID,918.794,VALID,0,VALID,97.3815,VALID,0.107441,VALID,20.2653,VALID,17,VALID,0.13125,
2009-12-04, 00:48:04,VALID,918.802,VALID,0,VALID,97.4273,VALID,0,VALID,20.3043,VALID,17,VALID,0.273828,
2009-12-04, 00:49:04,VALID,918.781,VALID,0,VALID,97.412,VALID,0,VALID,20.3043,VALID,17,VALID,0.156641,
2009-12-04, 00:50:04,VALID,918.739,VALID,0,VALID,97.3739,VALID,0,VALID,20.2848,VALID,17,VALID,0,
2009-12-04, 00:51:04,VALID,918.749,VALID,0,VALID,97.3891,VALID,0,VALID,20.2653,VALID,17,VALID,0,
2009-12-04, 00:52:04,VALID,918.756,VALID,0.2,VALID,97.3891,VALID,0,VALID,20.2653,VALID,17,VALID,0,
2009-12-04, 00:53:04,VALID,918.726,VALID,0,VALID,97.3739,VALID,0,VALID,20.2848,VALID,17,VALID,0,
2009-12-04, 00:54:04,VALID,918.737,VALID,0,VALID,97.412,VALID,0,VALID,20.2653,VALID,17,VALID,0,
2009-12-04, 00:55:04,VALID,918.73,VALID,0,VALID,97.4654,VALID,0,VALID,20.3043,VALID,17,VALID,0.00820312,
2009-12-04, 00:56:04,VALID,918.734,VALID,0,VALID,97.3815,VALID,0,VALID,20.3043,VALID,17,VALID,0.298828,
2009-12-04, 00:57:04,VALID,918.764,VALID,0,VALID,97.3968,VALID,0,VALID,20.3043,VALID,17,VALID,0,
2009-12-04, 00:58:04,VALID,918.72,VALID,0,VALID,97.4196,VALID,0,VALID,20.2848,VALID,17,VALID,0.0332031,
2009-12-04, 00:59:04,VALID,918.735,VALID,0,VALID,97.3968,VALID,0,VALID,20.3043,VALID,17,VALID,0.297266,
2009-12-04, 01:00:04,VALID,918.72,VALID,0,VALID,97.4196,VALID,0,VALID,20.3043,VALID,17,VALID,0.290234,
2009-12-04, 01:01:04,VALID,918.702,VALID,0,VALID,97.3739,VALID,0.107441,VALID,20.3043,VALID,17,VALID,0.344141,
2009-12-04, 01:02:04,VALID,918.688,VALID,0,VALID,97.3815,VALID,0,VALID,20.2848,VALID,17,VALID,0.286719,
2009-12-04, 01:03:04,VALID,918.688,VALID,0,VALID,97.3815,VALID,0,VALID,20.2848,VALID,17,VALID,0.137109,
2009-12-04, 01:04:04,VALID,918.657,VALID,0,VALID,97.3815,VALID,0,VALID,20.2653,VALID,17,VALID,0.0328125,
2009-12-04, 01:05:04,VALID,918.664,VALID,0,VALID,97.3358,VALID,0,VALID,20.2653,VALID,17,VALID,0.184766,
2009-12-04, 01:06:04,VALID,918.645,VALID,0,VALID,97.3739,VALID,0,VALID,20.2458,VALID,17,VALID,0.0851562,
2009-12-04, 01:07:04,VALID,918.639,VALID,0,VALID,97.4044,VALID,0,VALID,20.2848,VALID,17,VALID,0.184766,
2009-12-04, 01:08:04,VALID,918.621,VALID,0,VALID,97.3891,VALID,0,VALID,20.2653,VALID,17,VALID,0.346875,
2009-12-04, 01:09:04,VALID,918.622,VALID,0,VALID,97.4425,VALID,0,VALID,20.3043,VALID,17,VALID,0.120703,
2009-12-04, 01:10:04,VALID,918.588,VALID,0,VALID,97.4654,VALID,0,VALID,20.3433,VALID,17,VALID,0,
2009-12-04, 01:11:04,VALID,918.574,VALID,0,VALID,97.3968,VALID,0,VALID,20.3238,VALID,17,VALID,0.390625,
2009-12-04, 01:12:04,VALID,918.562,VALID,0,VALID,97.4196,VALID,0,VALID,20.3433,VALID,17,VALID,0.277734,
2009-12-04, 01:13:04,VALID,918.52,VALID,0,VALID,97.3815,VALID,0,VALID,20.3238,VALID,17,VALID,0.305469,
2009-12-04, 01:14:04,VALID,918.508,VALID,0,VALID,97.3358,VALID,0,VALID,20.3058,VALID,17,VALID,0.266016,
2009-12-04, 01:15:04,VALID,918.496,VALID,0,VALID,97.3053,VALID,0,VALID,20.2653,VALID,17,VALID,0.238672,
2009-12-04, 01:16:04,VALID,918.497,VALID,0,VALID,97.351,VALID,0,VALID,20.2247,VALID,17,VALID,0,
2009-12-04, 01:17:04,VALID,918.514,VALID,0,VALID,97.3358,VALID,0,VALID,20.2473,VALID,17,VALID,0,
2009-12-04, 01:18:04,VALID,918.463,VALID,0,VALID,97.351,VALID,0,VALID,20.2068,VALID,17,VALID,0,
2009-12-04, 01:19:04,VALID,918.466,VALID,0,VALID,97.351,VALID,0,VALID,20.2068,VALID,17,VALID,0,
2009-12-04, 01:20:04,VALID,918.451,VALID,0,VALID,97.3434,VALID,0.107441,VALID,20.1873,VALID,17,VALID,0,
2009-12-04, 01:21:04,VALID,918.456,VALID,0,VALID,97.3815,VALID,0,VALID,20.2068,VALID,17,VALID,0,
2009-12-04, 01:22:04,VALID,918.454,VALID,0,VALID,97.3968,VALID,0,VALID,20.2068,VALID,17,VALID,0,
2009-12-04, 01:23:05,VALID,918.437,VALID,0.2,VALID,97.4196,VALID,0,VALID,20.2068,VALID,17,VALID,0,
2009-12-04, 01:24:05,VALID,918.428,VALID,0,VALID,97.4349,VALID,0,VALID,20.2653,VALID,17,VALID,0,
2009-12-04, 01:25:05,VALID,918.4,VALID,0,VALID,97.4044,VALID,0,VALID,20.2653,VALID,17,VALID,0,
2009-12-04, 01:26:05,VALID,918.379,VALID,0,VALID,97.3891,VALID,0,VALID,20.2458,VALID,17,VALID,0,
2009-12-04, 01:27:05,VALID,918.366,VALID,0,VALID,97.3739,VALID,0,VALID,20.2263,VALID,17,VALID,0,
2009-12-04, 01:28:05,VALID,918.333,VALID,0,VALID,97.3815,VALID,0,VALID,20.2263,VALID,17,VALID,0,
2009-12-04, 01:29:05,VALID,918.341,VALID,0,VALID,97.3815,VALID,0,VALID,20.2263,VALID,17,VALID,0,
2009-12-04, 01:30:05,VALID,918.307,VALID,0,VALID,97.4196,VALID,0,VALID,20.2458,VALID,17,VALID,0,
2009-12-04, 01:31:05,VALID,918.316,VALID,0,VALID,97.4196,VALID,0,VALID,20.2653,VALID,17,VALID,0,
2009-12-04, 01:32:05,VALID,918.303,VALID,0,VALID,97.4501,VALID,0,VALID,20.3058,VALID,17,VALID,0,
2009-12-04, 01:33:05,VALID,918.322,VALID,0,VALID,97.4273,VALID,0,VALID,20.3043,VALID,17,VALID,0,
2009-12-04, 01:34:05,VALID,918.305,VALID,0,VALID,97.4501,VALID,0,VALID,20.3043,VALID,17,VALID,0,
2009-12-04, 01:35:05,VALID,918.287,VALID,0,VALID,97.3815,VALID,0,VALID,20.3043,VALID,17,VALID,0,
2009-12-04, 01:36:05,VALID,918.333,VALID,0,VALID,97.3815,VALID,0,VALID,20.2653,VALID,17,VALID,0,
2009-12-04, 01:37:05,VALID,918.319,VALID,0,VALID,97.3815,VALID,0,VALID,20.2848,VALID,17,VALID,0,
2009-12-04, 01:38:05,VALID,918.335,VALID,0,VALID,97.3739,VALID,0,VALID,20.2653,VALID,17,VALID,0.003125,
2009-12-04, 01:39:05,VALID,918.327,VALID,0,VALID,97.3891,VALID,0,VALID,20.3058,VALID,17,VALID,0,
2009-12-04, 01:40:05,VALID,918.331,VALID,0,VALID,97.3968,VALID,0.107441,VALID,20.3043,VALID,17,VALID,0.05625,
2009-12-04, 01:41:05,VALID,918.315,VALID,0,VALID,97.3891,VALID,0.107441,VALID,20.3043,VALID,17,VALID,0,
2009-12-04, 01:42:05,VALID,918.322,VALID,0,VALID,97.4044,VALID,0,VALID,20.2848,VALID,17,VALID,0.0761719,
2009-12-04, 01:43:05,VALID,918.301,VALID,0,VALID,97.3739,VALID,0,VALID,20.2848,VALID,17,VALID,0.246875,
2009-12-04, 01:44:05,VALID,918.291,VALID,0,VALID,97.3891,VALID,0,VALID,20.2848,VALID,17,VALID,0.448438,
2009-12-04, 01:45:05,VALID,918.276,VALID,0,VALID,97.3205,VALID,0,VALID,20.2863,VALID,17,VALID,0.403906,
2009-12-04, 01:46:05,VALID,918.265,VALID,0,VALID,97.3739,VALID,0,VALID,20.2653,VALID,17,VALID,0.255859,
2009-12-04, 01:47:05,VALID,918.278,VALID,0,VALID,97.412,VALID,0,VALID,20.2848,VALID,17,VALID,0.0941406,
2009-12-04, 01:48:05,VALID,918.264,VALID,0,VALID,97.4196,VALID,0,VALID,20.3043,VALID,17,VALID,0.205859,
2009-12-04, 01:49:05,VALID,918.232,VALID,0,VALID,97.412,VALID,0,VALID,20.3043,VALID,17,VALID,0.186328,
2009-12-04, 01:50:05,VALID,918.217,VALID,0,VALID,97.4349,VALID,0,VALID,20.3433,VALID,17,VALID,0,
2009-12-04, 01:51:05,VALID,918.212,VALID,0,VALID,97.4425,VALID,0,VALID,20.3838,VALID,17,VALID,0,
2009-12-04, 01:52:05,VALID,918.215,VALID,0,VALID,97.4349,VALID,0,VALID,20.3823,VALID,17,VALID,0,
2009-12-04, 01:53:05,VALID,918.2,VALID,0,VALID,97.3968,VALID,0,VALID,20.3838,VALID,17,VALID,0,
2009-12-04, 01:54:05,VALID,918.175,VALID,0,VALID,97.3586,VALID,0,VALID,20.3433,VALID,17,VALID,0,
2009-12-04, 01:55:05,VALID,918.181,VALID,0,VALID,97.3891,VALID,0,VALID,20.3433,VALID,17,VALID,0,
2009-12-04, 01:56:05,VALID,918.177,VALID,0,VALID,97.4196,VALID,0,VALID,20.3628,VALID,17,VALID,0,
2009-12-04, 01:57:05,VALID,918.191,VALID,0,VALID,97.412,VALID,0,VALID,20.4018,VALID,17,VALID,0,
2009-12-04, 01:58:05,VALID,918.15,VALID,0,VALID,97.4044,VALID,0,VALID,20.4018,VALID,17,VALID,0,
2009-12-04, 01:59:05,VALID,918.132,VALID,0,VALID,97.3968,VALID,0,VALID,20.3823,VALID,17,VALID,0,
2009-12-04, 02:00:05,VALID,918.165,VALID,0,VALID,97.3739,VALID,0,VALID,20.4018,VALID,17,VALID,0,
2009-12-04, 02:01:05,VALID,918.134,VALID,0,VALID,97.3434,VALID,0,VALID,20.3628,VALID,17,VALID,0,
2009-12-04, 02:02:05,VALID,918.123,VALID,0,VALID,97.3815,VALID,0,VALID,20.3628,VALID,17,VALID,0,
2009-12-04, 02:03:05,VALID,918.09,VALID,0,VALID,97.3358,VALID,0,VALID,20.3433,VALID,17,VALID,0.381641,
2009-12-04, 02:04:05,VALID,918.087,VALID,0,VALID,97.3205,VALID,0,VALID,20.2832,VALID,17,VALID,0.679297,
2009-12-04, 02:05:05,VALID,918.069,VALID,0,VALID,97.351,VALID,0,VALID,20.3253,VALID,17,VALID,0.708984,
2009-12-04, 02:06:05,VALID,918.08,VALID,0,VALID,97.3586,VALID,0,VALID,20.3043,VALID,17,VALID,0.5625,
2009-12-04, 02:07:05,VALID,918.058,VALID,0,VALID,97.29,VALID,0,VALID,20.2653,VALID,17,VALID,0.353516,
2009-12-04, 02:08:05,VALID,918.09,VALID,0,VALID,97.2824,VALID,0,VALID,20.2458,VALID,17,VALID,0.555078,
2009-12-04, 02:09:05,VALID,918.048,VALID,0,VALID,97.3281,VALID,0,VALID,20.2263,VALID,17,VALID,0.411719,
2009-12-04, 02:10:05,VALID,918.063,VALID,0,VALID,97.3205,VALID,0,VALID,20.2473,VALID,17,VALID,0.417188,
2009-12-04, 02:11:05,VALID,918.035,VALID,0,VALID,97.3053,VALID,0,VALID,20.2068,VALID,17,VALID,0.396094,
2009-12-04, 02:12:05,VALID,918.056,VALID,0,VALID,97.2672,VALID,0,VALID,20.1873,VALID,17,VALID,0.588281,
2009-12-04, 02:13:05,VALID,918.054,VALID,0,VALID,97.29,VALID,0,VALID,20.1483,VALID,17,VALID,0.523047,
2009-12-04, 02:14:05,VALID,918.046,VALID,0,VALID,97.2824,VALID,0,VALID,20.1483,VALID,17,VALID,0.578125,
2009-12-04, 02:15:05,VALID,918.036,VALID,0,VALID,97.3053,VALID,0,VALID,20.1288,VALID,17,VALID,0.351953,
2009-12-04, 02:16:05,VALID,918.049,VALID,0,VALID,97.3281,VALID,0,VALID,20.1693,VALID,17,VALID,0.263672,
2009-12-04, 02:17:05,VALID,918.018,VALID,0,VALID,97.3129,VALID,0,VALID,20.1483,VALID,17,VALID,0.207813,
2009-12-04, 02:18:05,VALID,918.015,VALID,0,VALID,97.3205,VALID,0,VALID,20.1483,VALID,17,VALID,0.208984,
2009-12-04, 02:19:05,VALID,918.008,VALID,0,VALID,97.3663,VALID,0,VALID,20.1483,VALID,17,VALID,0,
2009-12-04, 02:20:05,VALID,917.984,VALID,0,VALID,97.3586,VALID,0,VALID,20.1693,VALID,17,VALID,0,
2009-12-04, 02:21:05,VALID,917.992,VALID,0,VALID,97.3815,VALID,0,VALID,20.1678,VALID,17,VALID,0,
2009-12-04, 02:22:05,VALID,917.969,VALID,0,VALID,97.3891,VALID,0,VALID,20.1873,VALID,17,VALID,0.374219,
2009-12-04, 02:23:05,VALID,917.965,VALID,0,VALID,97.3434,VALID,0,VALID,20.1678,VALID,17,VALID,0.30625,
2009-12-04, 02:24:05,VALID,917.959,VALID,0,VALID,97.351,VALID,0,VALID,20.1483,VALID,17,VALID,0.182422,
2009-12-04, 02:25:05,VALID,917.963,VALID,0,VALID,97.3739,VALID,0,VALID,20.1693,VALID,17,VALID,0,
2009-12-04, 02:26:05,VALID,917.95,VALID,0,VALID,97.3739,VALID,0,VALID,20.1693,VALID,17,VALID,0.190234,
2009-12-04, 02:27:05,VALID,917.932,VALID,0,VALID,97.3586,VALID,0,VALID,20.1678,VALID,17,VALID,0.278125,
2009-12-04, 02:28:05,VALID,917.91,VALID,0,VALID,97.3586,VALID,0,VALID,20.1483,VALID,17,VALID,0.209375,
2009-12-04, 02:29:05,VALID,917.933,VALID,0,VALID,97.3739,VALID,0,VALID,20.1678,VALID,17,VALID,0.283984,
2009-12-04, 02:30:05,VALID,917.926,VALID,0,VALID,97.3434,VALID,0,VALID,20.1693,VALID,17,VALID,0.264844,
2009-12-04, 02:31:05,VALID,917.919,VALID,0,VALID,97.3739,VALID,0,VALID,20.1483,VALID,17,VALID,0.172266,
2009-12-04, 02:32:05,VALID,917.901,VALID,0,VALID,97.3968,VALID,0,VALID,20.1888,VALID,17,VALID,0.140625,
2009-12-04, 02:33:05,VALID,917.878,VALID,0,VALID,97.3815,VALID,0,VALID,20.1888,VALID,17,VALID,0,
2009-12-04, 02:34:05,VALID,917.86,VALID,0,VALID,97.3815,VALID,0,VALID,20.1678,VALID,17,VALID,0.214062,
2009-12-04, 02:35:05,VALID,917.87,VALID,0,VALID,97.3968,VALID,0,VALID,20.2083,VALID,17,VALID,0.210938,
2009-12-04, 02:36:05,VALID,917.874,VALID,0,VALID,97.3586,VALID,0,VALID,20.1678,VALID,17,VALID,0.358203,
2009-12-04, 02:37:05,VALID,917.841,VALID,0,VALID,97.351,VALID,0,VALID,20.1888,VALID,17,VALID,0,
2009-12-04, 02:38:05,VALID,917.838,VALID,0,VALID,97.3815,VALID,0,VALID,20.1678,VALID,17,VALID,0.249219,
2009-12-04, 02:39:05,VALID,917.848,VALID,0,VALID,97.3815,VALID,0,VALID,20.2083,VALID,17,VALID,0.276953,
2009-12-04, 02:40:05,VALID,917.85,VALID,0,VALID,97.412,VALID,0,VALID,20.1873,VALID,17,VALID,0.147656,
2009-12-04, 02:41:05,VALID,917.858,VALID,0,VALID,97.4196,VALID,0,VALID,20.2068,VALID,17,VALID,0.314063,
2009-12-04, 02:42:05,VALID,917.837,VALID,0,VALID,97.4577,VALID,0,VALID,20.2473,VALID,17,VALID,0.272656,
2009-12-04, 02:43:05,VALID,917.859,VALID,0,VALID,97.4501,VALID,0,VALID,20.2653,VALID,17,VALID,0.241016,
2009-12-04, 02:44:05,VALID,917.853,VALID,0,VALID,97.3815,VALID,0,VALID,20.2458,VALID,17,VALID,0.507422,
2009-12-04, 02:45:05,VALID,917.854,VALID,0,VALID,97.351,VALID,0,VALID,20.2473,VALID,17,VALID,0.574219,
2009-12-04, 02:46:05,VALID,917.854,VALID,0,VALID,97.3663,VALID,0,VALID,20.2278,VALID,17,VALID,0.387109,
2009-12-04, 02:47:05,VALID,917.841,VALID,0,VALID,97.3434,VALID,0,VALID,20.1873,VALID,17,VALID,0.421875,
2009-12-04, 02:48:05,VALID,917.841,VALID,0,VALID,97.412,VALID,0,VALID,20.2083,VALID,17,VALID,0.43125,
2009-12-04, 02:49:05,VALID,917.827,VALID,0,VALID,97.4044,VALID,0,VALID,20.2083,VALID,17,VALID,0.33125,
2009-12-04, 02:50:05,VALID,917.839,VALID,0,VALID,97.4196,VALID,0,VALID,20.1873,VALID,17,VALID,0.123828,
2009-12-04, 02:51:05,VALID,917.815,VALID,0,VALID,97.412,VALID,0,VALID,20.2083,VALID,17,VALID,0.150781,
2009-12-04, 02:52:05,VALID,917.769,VALID,0,VALID,97.3586,VALID,0,VALID,20.1873,VALID,17,VALID,0,
2009-12-04, 02:53:05,VALID,917.797,VALID,0,VALID,97.3739,VALID,0,VALID,20.1678,VALID,17,VALID,0,
2009-12-04, 02:54:05,VALID,917.774,VALID,0,VALID,97.3663,VALID,0,VALID,20.1693,VALID,17,VALID,0,
2009-12-04, 02:55:05,VALID,917.772,VALID,0,VALID,97.4501,VALID,0,VALID,20.1888,VALID,17,VALID,0,
2009-12-04, 02:56:05,VALID,917.762,VALID,0.2,VALID,97.4425,VALID,0,VALID,20.2068,VALID,17,VALID,0.0628906,
2009-12-04, 02:57:05,VALID,917.721,VALID,0,VALID,97.4273,VALID,0,VALID,20.2068,VALID,17,VALID,0.703125,
2009-12-04, 02:58:05,VALID,917.747,VALID,0,VALID,97.3968,VALID,0,VALID,20.1873,VALID,17,VALID,0.651953,
2009-12-04, 02:59:05,VALID,917.734,VALID,0,VALID,97.4273,VALID,0,VALID,20.1888,VALID,17,VALID,1.05352,
2009-12-04, 03:00:05,VALID,917.709,VALID,0,VALID,97.4349,VALID,0,VALID,20.2068,VALID,17,VALID,0.729688,
2009-12-04, 03:01:05,VALID,917.713,VALID,0,VALID,97.4349,VALID,0,VALID,20.2068,VALID,17,VALID,0.744141,
2009-12-04, 03:02:05,VALID,917.686,VALID,0,VALID,97.412,VALID,0,VALID,20.1678,VALID,17,VALID,0.783594,
2009-12-04, 03:03:05,VALID,917.678,VALID,0,VALID,97.4273,VALID,0,VALID,20.1678,VALID,17,VALID,0.597266,
2009-12-04, 03:04:05,VALID,917.679,VALID,0,VALID,97.4425,VALID,0,VALID,20.1678,VALID,17,VALID,0.177344,
2009-12-04, 03:05:05,VALID,917.655,VALID,0,VALID,97.4806,VALID,0,VALID,20.2083,VALID,17,VALID,0,
2009-12-04, 03:06:05,VALID,917.628,VALID,0,VALID,97.4806,VALID,0,VALID,20.2068,VALID,17,VALID,0.29375,
2009-12-04, 03:07:05,VALID,917.632,VALID,0,VALID,97.5035,VALID,0,VALID,20.2263,VALID,17,VALID,0.748828,
2009-12-04, 03:08:05,VALID,917.62,VALID,0,VALID,97.5264,VALID,0,VALID,20.2473,VALID,17,VALID,0.05625,
2009-12-04, 03:09:05,VALID,917.622,VALID,0,VALID,97.4959,VALID,0,VALID,20.2458,VALID,17,VALID,0.240234,
2009-12-04, 03:10:05,VALID,917.605,VALID,0,VALID,97.4349,VALID,0,VALID,20.2473,VALID,17,VALID,1.3043,
2009-12-04, 03:11:05,VALID,917.607,VALID,0.2,VALID,97.4425,VALID,0,VALID,20.1873,VALID,17,VALID,0.980078,
2009-12-04, 03:12:05,VALID,917.607,VALID,0,VALID,97.473,VALID,0,VALID,20.2068,VALID,17,VALID,1.35508,
2009-12-04, 03:13:05,VALID,917.579,VALID,0,VALID,97.4654,VALID,0,VALID,20.2068,VALID,17,VALID,0.641797,
2009-12-04, 03:14:05,VALID,917.605,VALID,0,VALID,97.4044,VALID,0,VALID,20.1873,VALID,17,VALID,1.08164,
2009-12-04, 03:15:05,VALID,917.597,VALID,0,VALID,97.4501,VALID,0,VALID,20.1678,VALID,17,VALID,0.727344,
2009-12-04, 03:16:05,VALID,917.568,VALID,0,VALID,97.4806,VALID,0,VALID,20.1693,VALID,17,VALID,1.10391,
2009-12-04, 03:17:05,VALID,917.582,VALID,0,VALID,97.4959,VALID,0,VALID,20.1888,VALID,17,VALID,0.815625,
2009-12-04, 03:18:05,VALID,917.563,VALID,0,VALID,97.5187,VALID,0,VALID,20.1873,VALID,17,VALID,0.911719,
2009-12-04, 03:19:05,VALID,917.583,VALID,0,VALID,97.5264,VALID,0,VALID,20.2278,VALID,17,VALID,0.788672,
2009-12-04, 03:20:05,VALID,917.575,VALID,0,VALID,97.4806,VALID,0,VALID,20.2083,VALID,17,VALID,1.28008,
2009-12-04, 03:21:05,VALID,917.572,VALID,0,VALID,97.4882,VALID,0,VALID,20.1873,VALID,17,VALID,0.919141,
2009-12-04, 03:22:05,VALID,917.587,VALID,0,VALID,97.5187,VALID,0,VALID,20.1873,VALID,17,VALID,1.15078,
2009-12-04, 03:23:05,VALID,917.562,VALID,0,VALID,97.5416,VALID,0,VALID,20.1873,VALID,17,VALID,0.957031,
2009-12-04, 03:24:05,VALID,917.562,VALID,0,VALID,97.5035,VALID,0,VALID,20.1873,VALID,17,VALID,0.496875,
2009-12-04, 03:25:05,VALID,917.552,VALID,0,VALID,97.5111,VALID,0,VALID,20.1873,VALID,17,VALID,0.899609,
2009-12-04, 03:26:05,VALID,917.538,VALID,0,VALID,97.5492,VALID,0,VALID,20.2068,VALID,17,VALID,1.2043,
2009-12-04, 03:27:05,VALID,917.547,VALID,0,VALID,97.5264,VALID,0,VALID,20.2263,VALID,17,VALID,1.09687,
2009-12-04, 03:28:05,VALID,917.55,VALID,0,VALID,97.5035,VALID,0,VALID,20.2083,VALID,17,VALID,1.2457,
2009-12-04, 03:29:05,VALID,917.532,VALID,0.2,VALID,97.5797,VALID,0,VALID,20.2278,VALID,17,VALID,0.776563,
2009-12-04, 03:30:05,VALID,917.542,VALID,0,VALID,97.534,VALID,0,VALID,20.2473,VALID,17,VALID,1.0082,
2009-12-04, 03:31:05,VALID,917.57,VALID,0,VALID,97.5264,VALID,0,VALID,20.1857,VALID,17,VALID,0.842969,
2009-12-04, 03:32:05,VALID,917.549,VALID,0,VALID,97.534,VALID,0,VALID,20.2068,VALID,17,VALID,1.55664,
2009-12-04, 03:33:05,VALID,917.556,VALID,0,VALID,97.5264,VALID,0,VALID,20.2068,VALID,17,VALID,0.915625,
2009-12-04, 03:34:05,VALID,917.567,VALID,0,VALID,97.5264,VALID,0,VALID,20.2068,VALID,17,VALID,1.40625,
2009-12-04, 03:35:05,VALID,917.572,VALID,0,VALID,97.534,VALID,0,VALID,20.2278,VALID,17,VALID,1.70078,
2009-12-04, 03:36:05,VALID,917.575,VALID,0,VALID,97.5264,VALID,0,VALID,20.2068,VALID,17,VALID,1.53867,
2009-12-04, 03:37:05,VALID,917.578,VALID,0,VALID,97.4196,VALID,0,VALID,20.1093,VALID,28,VALID,1.65352,
2009-12-04, 03:38:05,VALID,917.568,VALID,0,VALID,97.3358,VALID,0,VALID,19.9923,VALID,4,VALID,1.51953,
2009-12-04, 03:39:05,VALID,917.572,VALID,0,VALID,97.4349,VALID,0,VALID,19.9938,VALID,43,VALID,1.34609,
2009-12-04, 03:40:05,VALID,917.56,VALID,0,VALID,97.4501,VALID,0,VALID,19.9938,VALID,42,VALID,1.1875,
2009-12-04, 03:41:05,VALID,917.546,VALID,0.2,VALID,97.4425,VALID,0,VALID,19.9338,VALID,42,VALID,1.38867,
2009-12-04, 03:42:05,VALID,917.555,VALID,0,VALID,97.5035,VALID,0,VALID,19.9338,VALID,42,VALID,1.28281,
2009-12-04, 03:43:05,VALID,917.535,VALID,0,VALID,97.4349,VALID,0,VALID,19.8753,VALID,27,VALID,1.12773,
2009-12-04, 03:44:05,VALID,917.535,VALID,0,VALID,97.5492,VALID,0,VALID,19.8753,VALID,27,VALID,1.34648,
2009-12-04, 03:45:05,VALID,917.508,VALID,0,VALID,97.534,VALID,0,VALID,19.8753,VALID,17,VALID,1.26328,
2009-12-04, 03:46:05,VALID,917.498,VALID,0,VALID,97.4806,VALID,0,VALID,19.8768,VALID,10,VALID,1.21797,
2009-12-04, 03:47:05,VALID,917.488,VALID,0,VALID,97.5035,VALID,0,VALID,19.8363,VALID,30,VALID,1.77734,
2009-12-04, 03:48:05,VALID,917.504,VALID,0,VALID,97.534,VALID,0,VALID,19.8573,VALID,29,VALID,0.999219,
2009-12-04, 03:49:05,VALID,917.485,VALID,0,VALID,97.5569,VALID,0,VALID,19.8363,VALID,29,VALID,0.834766,
2009-12-04, 03:50:05,VALID,917.502,VALID,0,VALID,97.5492,VALID,0,VALID,19.8168,VALID,30,VALID,1.22773,
2009-12-04, 03:51:05,VALID,917.484,VALID,0.2,VALID,97.4654,VALID,0,VALID,19.7778,VALID,17,VALID,1.46523,